Theta_e
307 307 308 308 308 308 308 308 308 308 309 309 309 309 310 310 309 306 304 308 311 319 316 311 315 313 311 306 310 306 300 297 298 297 300 305 303 308 310 309 309 312 327 332 339
306 306 307 307 307 307 307 307 307 307 308 308 308 308 309 311 302 302 311 313 315 315 302 306 307 310 307 304 307 304 299 299 304 305 303 304 304 305 306 307 308 310 331 336 337
306 306 306 306 306 306 306 305 305 306 306 306 307 308 309 307 295 302 312 311 312 311 303 304 308 309 304 303 304 304 299 304 304 306 307 305 305 308 306 304 308 308 319 332 334
305 306 306 306 306 306 305 305 305 305 305 306 306 307 308 300 282 301 310 310 310 307 303 305 307 304 302 301 303 298 303 304 305 307 306 305 307 306 307 308 312 312 314 323 333
305 305 305 306 306 305 305 305 305 307 308 308 307 307 301 288 287 301 307 306 304 304 300 298 301 302 298 300 300 299 301 302 303 305 306 307 305 305 307 311 313 312 312 317 326
305 305 305 305 305 305 305 305 306 307 308 309 308 305 296 283 298 302 301 301 301 302 300 300 296 297 296 300 299 301 301 301 302 301 303 302 304 306 308 311 311 311 311 313 314
306 305 306 306 306 306 306 306 306 307 310 310 308 303 294 288 300 302 301 300 301 301 299 301 301 297 297 297 302 301 296 300 301 302 299 304 299 300 306 310 309 310 311 312 317
306 305 305 306 305 305 305 306 306 308 308 309 307 300 289 299 303 302 301 301 303 303 302 304 303 298 296 299 297 295 296 291 298 302 302 301 293 302 307 307 307 309 310 311 313
306 306 305 306 306 306 306 305 306 308 308 307 301 296 289 303 297 301 302 298 302 305 305 303 301 295 295 290 287 291 285 288 291 300 299 299 295 301 304 304 306 308 309 310 312
306 305 305 305 305 305 304 303 305 305 301 304 301 290 292 290 297 299 303 302 297 298 297 297 296 292 292 289 278 281 284 287 288 295 297 296 296 300 303 303 306 308 309 310 311
305 305 304 304 304 303 298 295 290 290 292 287 288 289 291 296 299 296 298 301 300 296 288 292 288 284 287 289 289 288 286 285 289 294 295 293 296 298 301 303 303 305 308 309 310
304 304 303 304 303 301 296 290 290 291 285 291 291 292 295 296 291 294 302 293 292 287 290 288 284 289 290 289 287 287 285 284 287 291 292 292 292 297 299 300 303 305 306 309 311
302 303 303 302 300 295 292 292 295 295 285 285 290 290 292 295 291 292 297 294 290 286 287 284 287 290 288 287 285 285 283 283 283 288 291 291 289 293 298 300 302 305 307 309 310
302 303 302 302 292 293 290 295 296 296 277 280 289 292 291 294 289 297 298 294 290 286 288 286 290 288 287 285 286 281 287 286 284 283 279 291 281 291 294 296 299 302 306 308 310
302 303 302 300 293 290 292 296 296 290 270 281 287 294 292 288 291 292 300 294 287 287 287 284 285 285 284 285 288 284 289 287 286 283 282 283 280 285 294 294 297 301 304 307 310
303 302 302 296 293 294 295 293 291 277 267 280 286 284 285 287 288 290 292 297 294 289 288 287 291 288 287 289 289 290 287 287 287 284 275 280 281 283 287 292 297 301 304 306 309
302 302 299 297 289 294 293 288 276 271 279 279 280 283 283 282 284 285 284 284 283 279 279 284 284 288 290 286 289 287 283 276 275 276 274 283 280 283 291 296 298 299 303 306 309
302 299 295 296 295 295 289 281 270 273 277 283 282 282 280 283 282 283 282 280 285 284 280 277 276 284 290 286 283 284 283 276 271 273 276 283 278 284 295 298 300 303 304 306 308
299 292 291 293 294 293 285 272 272 276 282 280 281 278 279 281 281 281 280 280 284 284 277 278 277 285 286 289 287 283 280 286 280 281 276 280 284 291 293 296 298 302 304 305 307
291 289 290 295 296 290 279 275 278 281 284 282 276 280 275 278 278 278 279 283 283 286 287 281 274 284 286 288 288 286 288 279 281 274 272 278 280 282 292 295 300 301 303 305 306
288 285 291 295 293 284 275 274 279 284 285 280 279 278 278 277 278 277 278 283 285 283 284 283 279 280 285 282 282 283 281 282 281 279 274 275 281 291 289 290 298 300 302 305 307
285 278 290 294 281 276 275 280 285 284 285 283 283 282 279 279 277 277 277 281 284 284 278 283 280 276 278 286 287 286 283 282 276 275 278 277 279 290 290 291 297 299 302 303 304
282 282 289 291 277 274 279 281 283 282 282 281 279 281 282 278 275 278 279 284 284 282 279 282 278 272 275 280 283 279 282 284 282 281 277 273 278 289 290 291 294 298 301 303 303
281 275 280 283 281 280 279 279 279 283 282 282 281 282 280 278 280 277 278 282 284 282 286 285 279 274 270 273 277 275 277 280 279 276 277 278 280 285 288 288 291 295 298 302 303
280 275 279 274 277 281 281 279 278 277 282 283 280 280 278 275 277 276 279 280 282 283 283 282 274 274 275 277 277 277 277 280 277 278 275 280 280 285 288 288 291 294 296 298 301
279 278 282 280 281 280 279 277 277 278 280 279 279 280 280 276 277 274 278 278 277 281 280 281 274 276 273 277 278 277 278 279 280 282 282 282 282 289 291 292 292 294 294 296 298
286 286 283 278 278 276 277 278 279 281 282 283 281 279 278 280 282 283 282 281 280 278 278 278 276 273 269 275 276 273 279 280 281 285 285 281 286 290 290 290 292 294 295 297 297
Wind_Speed
13 13 13 14 14 14 14 14 14 14 14 15 17 19 21 21 19 4 4 6 10 15 14 7 3 3 2 3 4 3 7 15 20 15 10 3 3 2 1 5 3 2 4 5 16
12 13 13 13 13 13 14 15 15 15 15 14 14 15 19 20 7 2 4 13 14 16 7 6 2 2 2 3 5 9 9 20 8 17 14 9 7 6 5 6 10 9 5 8 11
13 13 13 14 13 14 14 14 14 14 14 14 15 15 17 12 2 3 10 16 13 14 3 3 4 2 4 3 7 7 23 16 12 9 11 12 15 6 10 13 14 12 4 6 11
13 13 13 14 14 15 15 15 15 14 13 13 13 14 16 2 4 2 10 16 12 10 4 3 1 1 3 8 6 14 23 12 15 17 12 12 6 13 14 24 12 12 15 6 14
14 15 16 16 17 17 17 17 16 15 14 12 8 9 5 4 3 2 10 14 7 7 8 5 1 2 5 4 3 18 22 16 16 17 15 15 19 19 27 29 18 14 10 10 12
15 16 17 18 19 20 21 20 18 17 15 10 2 1 2 3 1 5 9 7 5 4 5 8 6 6 7 6 8 8 15 16 13 17 17 19 20 14 32 22 20 20 22 20 19
15 16 18 19 21 23 23 21 19 16 13 2 5 4 3 4 3 7 4 2 2 0 1 2 5 4 7 4 7 11 18 20 23 15 15 9 20 26 41 19 19 15 16 15 15
15 17 19 20 22 24 24 20 18 8 6 8 9 3 3 3 4 4 2 2 3 3 3 3 3 3 3 8 8 11 14 13 6 15 12 14 30 28 21 17 25 24 23 22 21
15 17 19 20 21 23 22 21 11 2 5 7 3 1 3 3 3 2 2 3 4 3 6 10 5 3 2 4 7 10 17 22 19 8 10 22 29 30 26 19 22 20 21 21 21
16 17 19 21 21 23 23 15 6 4 3 1 2 1 2 5 5 4 1 2 4 6 3 2 3 3 2 6 12 12 15 19 21 6 12 20 30 26 20 17 14 15 18 19 19
16 17 19 21 23 19 11 5 8 5 8 2 7 4 6 8 5 2 2 2 1 1 2 2 1 6 9 13 16 16 20 27 27 18 18 26 27 24 18 19 20 24 17 16 15
16 16 18 19 20 15 4 7 4 2 8 4 7 8 8 3 4 1 1 3 3 3 1 1 8 13 9 12 14 16 20 26 26 18 20 28 32 28 22 19 22 22 22 20 16
14 15 17 19 9 6 4 6 1 5 2 7 3 4 5 3 3 4 1 1 2 2 3 6 5 6 7 12 12 15 19 23 27 18 24 22 36 29 26 25 22 21 24 21 19
13 14 16 19 5 4 2 2 4 5 4 5 3 1 2 2 3 1 1 1 2 4 4 7 6 8 9 11 9 18 11 20 21 15 16 3 23 20 16 24 23 25 20 23 24
12 13 13 5 1 2 4 6 2 2 4 7 2 2 9 2 7 2 1 0 6 6 3 7 8 10 12 10 9 10 8 13 12 16 17 22 19 20 14 21 24 24 27 23 22
13 12 14 2 1 3 6 4 3 6 3 4 4 8 8 6 5 8 3 1 2 6 6 14 7 6 5 11 14 15 17 18 15 11 11 24 21 22 18 26 23 25 24 25 23
14 14 9 2 1 1 4 3 5 5 3 4 5 10 7 6 6 6 7 8 3 5 5 11 2 3 5 7 3 6 9 5 4 6 14 7 18 27 14 18 25 28 25 21 23
15 9 4 1 4 3 3 5 5 2 2 3 5 9 2 9 5 8 8 9 5 4 5 5 7 2 4 4 8 13 9 7 6 7 15 9 16 18 16 25 28 21 26 22 18
10 3 2 4 1 2 5 5 4 2 2 6 8 2 2 6 4 7 5 5 5 8 8 7 6 5 8 9 2 3 6 12 8 20 12 9 29 22 23 24 26 26 26 20 23
2 2 3 4 2 4 5 1 1 2 2 2 2 3 4 5 6 10 4 2 4 6 2 4 11 4 4 1 2 5 7 6 4 6 6 11 20 12 9 11 14 15 21 23 22
3 2 1 4 3 5 3 3 3 3 2 2 2 5 4 3 5 7 5 3 8 5 8 6 5 11 9 4 8 4 4 3 5 5 9 8 1 14 19 25 17 14 14 19 21
2 3 2 2 3 1 2 2 3 3 2 3 4 6 5 3 6 5 6 4 13 10 11 3 5 9 16 9 2 1 8 4 5 7 8 8 8 12 18 19 21 18 17 16 15
2 1 2 1 1 0 3 3 3 2 1 2 3 3 2 4 5 5 6 6 14 9 7 5 3 8 12 1 4 5 5 7 7 8 12 9 9 16 20 20 20 19 18 16 16
3 2 3 4 1 3 1 3 3 1 5 4 3 3 2 3 6 8 12 7 12 16 16 13 5 4 8 11 14 16 13 16 11 8 13 16 25 19 18 19 18 19 19 16 13
3 1 2 1 1 1 1 1 4 5 4 2 2 4 4 6 11 14 12 20 14 15 8 3 6 6 11 16 19 23 20 18 13 18 11 20 18 20 16 17 17 17 16 14 11
4 3 1 2 1 2 3 3 4 5 4 4 8 8 5 6 11 20 17 16 13 11 12 3 9 13 16 19 16 21 23 23 16 13 12 14 19 15 19 11 12 12 13 11 10
1 1 2 1 2 3 3 4 2 2 6 8 5 10 15 17 15 15 14 18 21 21 22 13 7 7 15 14 14 13 7 6 7 8 9 8 12 18 20 15 13 14 13 5 7
Wind_Direction
25 17 17 11 12 3 359 355 351 350 352 357 346 343 341 339 341 347 34 351 333 332 319 300 67 355 178 218 178 147 233 241 235 228 244 279 240 164 358 263 316 286 329 340 140
20 14 12 8 4 357 352 349 343 343 345 347 342 343 332 338 339 25 23 5 345 339 335 357 1 30 191 209 197 206 234 241 242 236 251 248 252 306 297 280 280 290 69 108 150
20 12 10 6 2 355 350 343 340 338 337 338 338 339 326 343 307 61 20 359 349 334 271 297 298 260 192 204 200 207 240 240 244 261 262 259 265 259 268 265 253 269 115 160 179
16 11 7 2 0 354 349 341 338 333 331 332 333 334 327 330 2 44 7 352 350 356 14 341 346 258 237 215 211 251 248 249 257 262 270 268 281 261 260 256 259 270 293 215 195
12 9 4 360 358 353 345 339 335 332 330 324 323 330 356 11 256 320 348 351 1 14 25 7 339 285 250 265 258 241 260 266 261 256 258 272 259 269 258 260 261 264 252 252 232
12 9 3 359 356 350 343 337 335 333 325 310 265 220 82 342 185 325 331 334 20 28 17 26 358 313 282 261 258 313 293 285 276 263 256 254 267 275 256 258 261 256 258 254 249
9 5 360 357 353 347 342 336 331 335 341 15 156 144 114 239 309 332 325 316 296 96 41 347 339 336 332 269 287 291 289 281 255 245 249 261 253 241 256 254 269 263 259 251 241
3 1 358 355 351 347 337 332 330 343 34 96 138 124 245 247 299 323 357 27 227 239 223 265 279 269 237 307 298 278 281 274 309 222 227 200 257 246 264 240 247 246 249 253 252
359 359 357 353 350 342 330 330 331 23 101 117 106 90 355 309 332 314 225 280 295 257 250 280 199 219 268 259 273 244 266 268 289 262 218 215 253 251 259 258 252 240 239 247 248
2 359 357 352 348 340 328 332 8 72 339 187 134 63 357 326 306 303 291 275 299 307 321 123 149 198 200 204 248 269 259 270 272 319 280 245 247 255 262 262 259 260 244 243 244
1 359 355 350 347 343 345 16 12 360 37 344 305 272 300 305 283 306 351 270 280 73 48 30 239 234 228 234 256 269 271 276 276 283 270 272 272 273 275 265 252 255 250 246 248
1 357 354 347 346 352 19 71 80 218 320 303 259 260 274 261 307 330 145 345 345 347 81 27 247 251 247 256 258 261 264 268 279 281 261 276 272 274 276 274 263 258 251 247 253
358 358 355 346 355 30 31 93 349 149 270 304 256 268 294 188 303 286 78 0 322 329 237 236 272 333 251 270 274 262 252 260 266 296 281 284 278 268 261 264 259 257 252 249 246
359 356 356 344 57 335 45 345 335 172 56 337 2 36 350 253 290 211 226 300 276 300 310 261 259 262 274 264 251 267 278 266 277 278 262 321 274 276 257 245 242 243 248 241 241
350 345 351 35 271 346 324 336 37 82 31 311 18 330 327 342 312 29 274 1 271 279 301 272 281 296 296 272 245 256 303 284 280 271 275 259 270 269 260 251 238 237 229 240 236
342 339 340 66 339 256 324 337 57 45 269 350 19 349 356 352 328 328 323 286 271 288 249 259 259 287 236 295 265 281 281 283 266 263 255 242 240 269 243 248 257 256 241 234 233
335 329 332 144 265 320 334 42 44 101 324 19 342 331 333 326 322 10 325 320 305 324 332 315 245 240 218 295 258 234 276 276 236 212 252 254 230 244 279 259 247 247 243 240 230
334 356 354 311 326 14 37 55 81 240 322 18 323 315 340 11 343 327 342 354 19 322 285 304 305 203 171 279 301 303 266 267 278 242 279 250 249 245 234 237 253 268 248 248 234
350 2 43 335 29 54 66 60 180 202 14 337 318 327 340 13 337 337 346 338 24 35 3 306 288 292 257 267 262 350 287 287 270 252 277 264 269 265 253 261 249 244 250 244 238
37 15 15 347 63 53 67 123 222 212 341 313 286 6 324 332 335 347 304 241 351 43 84 313 300 268 307 281 208 230 324 320 261 284 209 245 263 269 235 336 333 294 265 250 249
51 60 302 357 39 43 96 226 290 256 326 253 266 290 274 288 318 308 277 274 17 332 336 292 244 290 306 278 300 302 313 306 270 289 330 322 263 29 12 347 339 339 319 286 245
77 69 333 325 46 318 144 221 291 288 307 292 233 258 263 315 292 281 267 314 17 358 334 301 284 286 303 325 0 56 299 292 301 328 288 263 270 26 1 338 329 352 8 10 346
69 312 343 22 216 232 265 264 241 266 287 331 292 260 344 293 297 284 296 331 326 342 330 332 308 313 310 346 40 338 302 281 273 271 283 274 280 348 331 331 332 338 358 17 21
85 47 339 48 6 140 264 274 251 300 275 226 259 281 326 278 273 281 295 298 334 309 294 295 261 255 278 292 293 289 293 285 269 283 293 267 289 304 323 320 325 328 344 3 27
39 170 173 324 336 174 136 281 270 294 235 260 260 199 333 287 292 277 292 305 301 290 276 259 259 252 265 271 288 279 285 287 276 268 255 284 298 309 322 321 323 314 331 336 5
128 139 172 269 245 202 225 237 240 268 239 260 247 303 298 271 275 291 293 292 284 290 276 251 265 288 280 284 273 291 286 284 276 321 266 279 293 341 306 291 311 336 326 322 349
122 73 110 267 164 135 229 212 232 358 269 260 296 309 298 290 298 286 277 270 259 263 271 259 257 267 275 290 304 291 231 329 286 343 316 305 328 332 341 334 335 330 332 359 343